Theta_e
311 311 312 313 314 315 315 316 316 313 311 312 314 314 314 315 315 317 320 323 324 324 326 331 337 335 332 333 345 343 344 347 350 350 347 344 346 344 342 344 344 344 343 344 344
313 313 313 313 314 315 315 316 317 317 311 312 313 314 314 314 315 318 325 323 324 323 323 323 335 329 327 333 346 342 343 345 347 344 346 346 349 348 342 342 345 344 345 344 343
315 314 314 314 315 315 316 317 318 319 318 312 312 312 313 313 315 325 326 324 325 323 322 323 329 327 327 340 346 348 351 345 347 342 342 347 347 342 342 343 345 345 345 344 344
317 316 315 315 315 316 317 317 318 320 321 321 319 316 312 312 326 327 327 326 325 323 323 325 330 328 332 347 348 348 350 347 350 347 344 346 346 344 342 341 343 344 345 345 345
319 318 316 315 315 316 317 318 320 321 321 321 322 321 318 314 318 330 330 326 324 323 324 325 327 331 343 346 347 348 348 347 349 347 346 346 346 347 343 341 342 345 344 344 345
320 319 318 316 316 316 317 320 322 321 321 319 321 321 321 320 327 325 330 330 326 325 325 326 327 334 340 345 346 346 347 347 346 345 346 344 345 345 344 343 340 343 344 344 345
320 320 319 318 316 316 318 320 321 323 322 319 320 322 322 319 330 330 329 324 322 324 326 327 326 327 341 338 345 342 346 345 344 343 346 343 346 345 341 343 341 340 340 343 343
318 319 320 319 318 316 317 320 321 322 324 323 321 322 323 321 328 331 329 326 323 325 325 326 326 329 341 342 345 340 346 351 346 345 345 342 349 342 342 343 343 344 342 341 341
315 316 318 320 319 317 316 319 321 322 323 324 322 330 330 326 330 330 328 327 324 325 327 327 327 332 341 341 342 345 350 351 349 345 345 342 347 343 340 342 343 345 341 341 340
314 314 317 319 320 318 316 318 321 323 324 324 323 324 328 330 332 331 328 325 325 324 326 326 326 322 333 336 343 344 344 348 347 348 345 344 344 343 340 340 343 344 341 341 341
316 316 316 318 321 319 316 317 325 328 325 326 326 326 327 330 331 327 324 324 323 322 321 324 323 323 324 337 337 338 341 349 347 346 346 344 347 343 341 341 342 344 344 341 342
321 318 320 319 321 318 314 316 324 324 322 325 326 326 326 327 325 325 324 324 323 319 320 320 321 323 324 338 338 339 341 348 345 348 348 348 351 345 341 340 342 342 344 343 341
326 324 322 323 321 320 322 323 323 323 320 323 324 325 325 328 327 324 325 324 320 319 319 320 322 325 329 339 340 338 338 343 347 348 343 347 346 337 341 341 341 342 341 343 342
327 327 324 325 321 324 325 323 322 322 318 322 325 325 326 328 323 325 325 324 321 318 318 318 321 323 324 333 338 337 336 342 349 350 350 345 346 344 340 346 344 341 342 344 344
328 327 326 324 323 322 322 323 322 322 323 327 326 329 329 326 324 324 325 324 321 321 320 321 323 322 322 324 329 323 336 339 351 350 344 347 341 341 341 343 345 343 343 344 345
327 327 327 325 325 324 323 322 321 320 325 328 328 325 323 324 324 324 325 324 324 322 321 319 322 322 321 323 324 324 330 334 336 338 341 338 342 343 343 343 343 343 343 343 344
327 327 327 327 327 325 324 322 317 322 324 328 326 324 323 323 324 322 321 321 320 322 319 320 321 320 323 321 320 324 326 334 335 335 334 332 340 339 339 338 340 339 344 343 344
326 325 326 329 327 325 324 318 321 323 323 322 321 324 325 323 322 322 320 320 318 318 318 320 320 321 323 321 320 322 322 330 336 340 336 334 341 337 340 340 341 341 344 345 344
323 325 327 329 326 325 324 320 319 320 321 321 321 322 325 326 324 321 319 320 320 317 319 319 321 322 322 322 322 326 326 324 330 332 336 340 338 339 342 340 339 338 343 344 345
321 325 330 328 327 323 320 321 320 322 322 321 322 322 320 321 324 321 319 320 321 320 320 319 321 322 322 324 324 326 325 329 325 335 342 343 342 339 338 343 340 341 341 344 346
321 326 328 328 324 323 320 320 322 324 325 323 323 322 322 320 325 326 322 323 322 322 318 318 320 322 325 324 324 324 323 321 321 330 338 345 343 335 336 341 343 342 343 345 346
320 323 328 327 321 319 318 321 324 323 325 323 324 324 324 321 321 323 329 328 326 324 321 318 317 320 325 326 323 323 322 318 323 328 332 334 336 335 341 341 341 341 343 340 344
316 324 328 326 321 321 321 324 325 325 324 324 324 323 324 322 322 323 323 328 327 326 321 320 318 319 320 321 327 326 325 323 321 328 333 333 335 333 335 333 339 337 340 344 344
320 323 327 327 325 326 325 327 328 329 327 327 324 322 321 322 320 321 322 325 326 328 329 323 317 318 320 323 331 334 333 330 321 328 333 334 336 339 339 336 338 340 344 346 346
324 325 323 323 324 324 323 324 327 328 327 327 326 324 321 321 321 321 323 324 326 328 325 320 322 325 325 331 332 333 333 332 332 327 327 329 334 336 340 340 341 344 346 346 345
321 321 321 321 323 323 322 323 326 327 327 327 327 327 325 320 320 324 326 324 330 326 326 322 324 327 331 331 332 333 333 332 332 327 329 331 337 333 338 343 343 345 346 346 345
316 315 319 320 320 320 324 326 327 326 327 327 327 326 326 326 326 326 327 327 325 326 326 325 325 325 327 331 331 333 332 332 331 329 328 335 332 333 334 338 342 342 346 346 346
Wind_Speed
11 10 10 10 10 11 10 10 10 10 8 6 7 7 8 8 9 11 11 6 7 5 5 6 10 7 9 5 9 8 3 3 7 11 7 22 6 15 19 28 12 5 29 31 30
12 12 11 11 11 11 11 11 11 10 7 4 5 6 7 8 10 15 5 9 9 3 7 10 11 10 10 7 10 4 3 8 8 6 6 4 6 8 18 21 23 28 29 31 30
14 13 12 12 12 11 11 11 11 10 7 4 2 4 6 6 8 11 6 11 6 5 9 10 11 14 2 10 7 6 3 4 6 15 7 3 11 16 24 14 35 35 36 34 32
16 14 13 13 13 12 12 12 10 8 6 5 4 3 4 4 4 2 3 8 7 7 9 9 9 6 3 4 1 1 2 3 6 7 3 4 6 11 7 21 32 38 37 37 30
17 16 14 13 13 13 12 12 9 7 6 5 5 4 4 5 10 2 2 3 8 10 10 9 10 5 5 3 5 8 5 6 11 16 11 12 6 4 14 24 28 33 37 35 28
17 16 15 14 13 13 13 11 8 7 6 6 5 5 4 4 2 6 4 9 11 12 10 10 6 5 11 5 11 6 12 5 11 12 6 9 5 4 10 11 23 32 36 33 27
17 16 16 15 13 12 11 11 10 9 7 7 7 7 10 12 4 2 4 7 9 11 9 4 11 12 8 6 11 21 6 3 6 4 5 22 5 5 1 2 19 18 23 29 27
17 17 16 15 14 13 12 11 11 11 9 8 8 10 10 9 9 11 9 3 4 6 8 4 11 4 6 18 5 4 3 2 4 7 8 1 4 8 6 7 10 6 16 31 28
18 17 16 16 15 13 12 12 11 11 9 7 7 7 10 6 14 13 13 9 4 5 8 10 11 4 11 6 4 2 2 4 3 12 5 4 5 20 19 10 12 13 29 29 32
19 18 16 15 15 14 11 12 12 13 8 8 11 7 12 7 11 17 11 10 12 9 12 10 3 2 3 3 5 6 3 4 1 8 5 5 6 10 22 19 15 7 19 24 33
20 19 17 15 15 14 9 8 6 2 7 14 11 14 18 12 11 12 14 12 12 11 5 10 3 7 11 9 7 9 8 4 4 7 6 7 3 6 17 18 17 14 11 18 35
21 20 18 15 13 11 7 3 5 13 12 18 23 28 25 13 6 10 14 10 6 6 3 4 6 15 7 11 7 6 9 6 13 7 4 6 5 3 15 22 24 26 19 16 27
22 21 19 14 11 4 4 9 15 17 7 18 25 27 28 18 18 16 18 15 4 4 5 8 13 3 8 6 9 5 9 10 4 10 2 4 5 5 7 14 19 21 22 21 34
22 22 20 15 5 6 3 10 7 14 4 7 5 9 18 15 11 13 22 15 4 10 7 7 17 12 9 11 11 6 18 15 14 12 5 9 4 6 6 6 12 20 22 22 40
22 21 18 17 15 9 8 4 3 2 3 5 4 8 13 16 5 10 24 20 8 7 6 10 6 5 8 7 13 11 12 18 20 13 4 5 1 7 4 6 8 19 22 31 38
22 20 20 16 15 5 4 4 3 5 6 4 9 7 7 10 6 18 24 14 9 4 4 10 14 6 9 7 4 4 5 8 5 3 2 6 6 5 5 14 9 18 23 34 38
23 20 21 19 11 6 4 2 4 3 5 4 3 6 8 7 5 8 7 7 6 2 4 7 8 7 6 4 6 5 6 3 3 4 5 3 4 8 7 6 14 22 26 37 39
24 21 19 18 9 8 6 4 3 5 4 5 6 1 7 7 7 7 8 7 7 5 2 2 9 3 4 7 7 5 9 6 6 4 4 4 1 5 7 19 16 17 28 36 43
24 19 15 3 10 14 8 2 6 6 3 6 7 4 9 4 4 7 9 11 9 9 8 4 7 6 7 8 9 3 3 6 7 1 3 5 6 5 5 4 6 12 29 31 34
24 19 8 8 10 16 5 5 5 2 6 4 1 3 6 6 5 5 11 8 7 14 17 8 4 6 5 4 3 8 6 3 3 4 3 4 3 5 6 8 7 8 18 24 28
18 9 6 20 13 6 3 6 6 12 12 3 3 6 4 6 5 2 8 7 13 7 14 6 6 13 4 4 8 2 2 3 5 6 5 3 6 7 9 12 7 12 24 28 29
10 3 10 16 3 2 3 4 4 10 17 6 4 6 7 5 4 3 4 4 10 22 8 11 6 6 12 5 9 8 8 6 4 3 2 4 4 7 8 9 17 21 22 21 25
15 7 6 16 1 3 7 7 11 15 15 5 6 7 6 6 2 2 5 8 10 3 9 7 4 2 8 7 5 3 4 3 4 4 5 4 4 2 10 10 21 22 18 18 22
7 4 7 6 4 4 6 6 8 15 13 11 10 10 6 5 5 4 4 7 19 6 5 8 4 8 8 7 4 3 1 5 5 3 4 5 7 7 7 12 11 17 18 17 15
6 3 6 4 6 10 4 5 10 8 6 14 7 8 7 6 3 4 0 12 8 7 7 4 5 5 5 7 5 3 1 3 1 6 6 7 9 15 15 11 23 28 21 20 18
6 6 8 9 12 8 4 5 9 11 7 6 8 14 13 3 5 3 1 3 4 7 4 6 3 1 2 8 8 2 5 5 2 7 3 12 5 5 24 27 19 26 27 25 22
8 6 3 7 6 4 5 11 13 13 8 15 11 9 6 13 24 18 8 7 7 3 4 3 1 3 3 6 6 3 6 6 3 5 7 8 10 7 5 14 23 28 31 27 24
Wind_Direction
19 11 4 358 353 351 351 349 346 338 317 282 260 256 258 259 261 255 245 214 203 279 293 283 270 291 302 250 185 155 75 162 163 156 217 219 264 180 150 138 153 186 150 150 156
14 9 5 1 357 353 351 349 349 350 336 301 264 255 256 262 265 263 228 216 216 236 282 287 283 300 298 218 157 115 163 197 192 185 202 227 243 321 137 146 108 122 142 150 159
10 6 3 1 357 355 349 346 345 349 355 345 300 269 261 262 282 268 241 216 231 245 283 279 279 302 290 149 160 188 203 161 207 198 215 312 37 70 125 138 144 146 156 161 162
6 3 358 355 353 351 348 343 338 338 345 352 346 312 275 236 189 7 198 212 221 246 265 267 275 329 49 70 33 321 298 353 121 169 136 355 70 73 125 135 156 154 160 163 166
3 359 354 348 346 345 345 346 340 329 330 339 343 337 310 247 234 94 24 257 229 243 250 254 285 25 104 83 110 17 96 51 90 119 108 94 83 106 128 148 163 158 161 169 170
357 354 350 344 338 336 339 341 340 321 313 310 315 321 304 266 192 232 298 269 238 234 239 241 301 70 113 97 78 311 96 71 96 127 127 81 351 346 99 139 165 169 170 171 173
349 348 346 341 333 326 327 327 323 320 297 294 293 301 284 247 169 204 301 317 229 217 226 238 321 320 147 107 96 53 53 9 92 131 112 126 16 332 177 193 169 172 169 181 185
342 341 340 337 331 319 314 313 313 319 300 278 286 302 271 209 241 241 244 296 187 214 259 319 317 314 105 121 85 60 94 287 213 182 193 37 178 216 203 215 209 247 177 169 185
338 337 335 332 328 316 309 305 305 307 300 268 280 297 270 208 231 233 226 260 244 230 255 291 287 127 135 124 77 110 146 231 163 210 162 191 172 213 207 213 287 295 166 169 176
337 334 333 329 324 317 310 300 302 292 278 262 256 298 251 251 239 229 226 226 239 240 248 259 245 107 61 101 213 160 148 254 164 188 174 205 222 184 206 209 236 163 180 177 177
338 335 332 330 321 316 312 304 332 318 288 246 262 245 280 306 176 194 175 212 237 250 185 262 93 229 225 203 193 143 134 169 338 210 159 200 188 201 204 214 219 191 174 193 183
337 335 333 331 316 313 310 283 325 311 296 277 263 265 268 220 228 179 180 204 208 213 191 3 240 239 230 205 207 123 140 184 181 196 114 213 215 238 209 210 215 200 206 167 180
336 334 332 334 310 291 323 4 11 337 286 291 245 235 246 235 229 180 193 203 188 212 203 191 241 212 187 219 232 136 181 191 172 161 73 124 295 239 209 233 216 216 209 179 178
329 332 332 334 314 288 316 349 351 5 30 278 209 226 228 227 222 210 195 189 206 215 218 220 257 247 251 223 194 169 207 190 164 145 212 189 246 258 213 215 228 231 210 184 179
320 322 325 321 307 317 296 329 335 34 345 249 183 163 184 185 149 190 194 197 216 240 105 240 259 242 243 211 173 224 153 205 171 175 124 210 59 269 124 235 231 227 204 198 189
314 315 311 308 299 314 265 271 351 49 257 285 162 145 128 197 210 162 186 202 220 231 250 251 272 192 221 262 193 241 120 54 119 140 9 229 164 275 206 226 205 223 207 199 194
314 310 298 286 281 269 330 278 52 165 316 288 147 143 161 193 233 147 173 208 179 162 297 312 291 281 216 205 350 107 65 13 8 7 221 172 173 232 221 188 204 207 200 198 200
320 312 286 270 263 240 233 69 193 241 280 324 352 230 195 178 234 166 154 200 260 123 101 240 315 259 247 174 180 189 148 155 196 195 268 50 280 260 239 188 207 194 187 191 202
329 324 295 264 205 187 160 125 209 213 309 6 349 8 220 238 209 159 183 204 204 171 171 188 262 272 222 192 132 219 142 193 103 318 77 318 309 298 15 293 124 147 180 182 200
339 336 4 170 160 158 91 226 244 307 19 23 18 281 30 304 299 196 181 206 217 200 185 218 287 262 270 112 186 153 169 69 27 140 147 300 268 239 284 254 247 170 178 186 200
343 344 64 144 142 149 168 233 287 289 318 321 326 310 292 274 215 286 224 258 210 227 166 164 153 270 106 173 194 303 225 79 122 126 146 187 262 216 218 206 179 170 179 182 191
3 354 148 158 120 188 187 219 262 279 289 284 259 256 238 256 273 221 253 227 228 223 182 194 164 210 228 224 201 180 198 136 128 220 103 157 263 292 158 144 153 177 180 187 196
344 302 188 206 185 273 297 288 277 273 268 245 246 232 272 205 319 234 286 293 313 244 206 186 213 243 334 351 27 65 50 62 102 86 185 142 242 129 134 164 179 175 166 155 165
358 352 339 353 331 26 352 303 324 315 284 321 247 248 244 232 179 239 312 296 318 348 344 125 143 162 193 203 162 147 321 120 104 107 179 205 165 153 193 167 179 186 161 149 163
23 355 15 329 336 327 314 279 330 335 345 1 347 1 282 223 264 264 219 304 325 344 35 85 188 146 178 169 169 158 14 14 2 152 183 207 178 178 184 192 182 176 165 153 147
24 5 337 295 298 326 306 308 324 344 334 352 354 334 11 44 289 209 112 260 212 320 67 10 309 89 148 153 140 97 316 284 337 14 19 163 223 243 173 181 183 178 169 160 149
344 331 300 292 314 0 4 337 343 345 316 348 329 333 7 344 317 288 262 248 250 142 89 66 40 52 190 138 103 40 179 258 83 235 161 160 214 157 189 190 188 174 174 169 165